Tracking 28790 objects as of 19-Apr-2024
HD Live streaming from Space Station
objects crossing your sky now

COSMOS 2488

Track COSMOS 2488 now!
10-day predictions
COSMOS 2488 is classified as:


NORAD ID: 39483
Int'l Code: 2013-076A
Perigee: 1,486.3 km
Apogee: 1,516.8 km
Inclination: 82.5 °
Period: 115.9 minutes
Semi major axis: 7872 km
RCS: Unknown
Launch date: December 25, 2013
Source: Commonwealth of Independent States (former USSR) (CIS)
Launch site: PLESETSK MISSILE AND SPACE COMPLEX (PKMTR)

COSMOS 2488 is a Russian military satellite apparently designed to relay messages between military users posted in remote areas.
Your satellite tracking list
Your tracking list is empty




NASA's NSSDC Master Catalog

Two Line Element Set (TLE):
1 39483U 13076A   24110.16341676  .00000052  00000-0  30309-3 0  9991
2 39483  82.4802 300.4023 0019419  16.5543 343.6166 12.42883122468069
Source of the keplerian elements: AFSPC